TimeMDT,TemperatureF,Dew PointF,Humidity,Sea Level PressureIn,VisibilityMPH,Wind Direction,Wind SpeedMPH,Gust SpeedMPH,PrecipitationIn,Events,Conditions,WindDirDegrees,DateUTC
12:53 AM,24.1,21.0,88,30.69,10.0,WSW,5.8,-,N/A,,Clear,250,2013-05-02 06:53:00
1:53 AM,23.0,19.0,85,30.70,10.0,WSW,3.5,-,N/A,,Clear,250,2013-05-02 07:53:00
2:53 AM,21.9,18.0,85,30.70,10.0,WSW,5.8,-,N/A,,Clear,240,2013-05-02 08:53:00
3:53 AM,23.0,18.0,81,30.70,10.0,WSW,9.2,-,N/A,,Clear,240,2013-05-02 09:53:00
4:53 AM,23.0,18.0,81,30.70,10.0,WSW,8.1,-,N/A,,Clear,240,2013-05-02 10:53:00
5:53 AM,21.0,16.0,81,30.71,10.0,WSW,8.1,-,N/A,,Clear,240,2013-05-02 11:53:00
6:53 AM,23.0,19.0,85,30.74,10.0,WSW,8.1,-,N/A,,Clear,240,2013-05-02 12:53:00
7:53 AM,28.9,23.0,78,30.73,10.0,SW,10.4,-,N/A,,Clear,220,2013-05-02 13:53:00
8:53 AM,33.1,24.1,70,30.73,10.0,SW,12.7,-,N/A,,Clear,230,2013-05-02 14:53:00
9:53 AM,36.0,25.0,64,30.71,10.0,WSW,11.5,-,N/A,,Clear,240,2013-05-02 15:53:00
10:53 AM,39.0,23.0,53,30.69,10.0,SW,9.2,-,N/A,,Scattered Clouds,230,2013-05-02 16:53:00
11:53 AM,41.0,17.1,38,30.65,10.0,West,11.5,20.7,N/A,,Mostly Cloudy,270,2013-05-02 17:53:00
12:53 PM,45.0,17.1,33,30.61,10.0,WSW,11.5,17.3,N/A,,Partly Cloudy,250,2013-05-02 18:53:00
1:53 PM,46.9,15.1,28,30.58,10.0,WSW,6.9,24.2,N/A,,Clear,250,2013-05-02 19:53:00
2:53 PM,48.9,12.9,24,30.53,10.0,WNW,9.2,20.7,N/A,,Clear,290,2013-05-02 20:53:00
3:53 PM,50.0,14.0,24,30.49,10.0,WNW,15.0,19.6,N/A,,Clear,300,2013-05-02 21:53:00
4:53 PM,51.1,12.9,22,30.47,10.0,WNW,10.4,19.6,N/A,,Clear,300,2013-05-02 22:53:00
5:53 PM,51.1,12.0,21,30.46,10.0,WNW,9.2,19.6,N/A,,Clear,300,2013-05-02 23:53:00
6:53 PM,50.0,9.0,19,30.44,10.0,WNW,11.5,-,N/A,,Clear,290,2013-05-03 00:53:00
7:53 PM,44.1,15.1,31,30.43,10.0,WNW,6.9,-,N/A,,Clear,300,2013-05-03 01:53:00
8:53 PM,36.0,18.0,48,30.44,10.0,WSW,5.8,-,N/A,,Clear,240,2013-05-03 02:53:00
9:53 PM,34.0,19.0,54,30.43,10.0,Calm,Calm,-,N/A,,Clear,0,2013-05-03 03:53:00
10:53 PM,30.0,17.1,59,30.41,10.0,Calm,Calm,-,N/A,,Clear,0,2013-05-03 04:53:00
11:53 PM,30.9,18.0,59,30.40,10.0,WSW,5.8,-,N/A,,Clear,240,2013-05-03 05:53:00